FENGYUN 1C DEB

Satellite information

Favourite Embed

Satellite Type and Status

DEBRISIN ORBIT

Key statistics

Satellite FENGYUN 1C DEB at a glance.

Uptime

9669

Days in orbit

Revolutions

≈ 14.5

Per day

Orbit

SSO

Sun Synchronous Orbit

Inclination

98.2

Latest

Satellite identification and parameters

Extended collection of information and parameters for FENGYUN 1C DEB.

Object identification

Identified? True

Debris? True

Object name: FENGYUN 1C DEB

International designator: 1999-025CYT

Object number (NORAD): 32350

Object ID (CCSDS): 32350

Country: PEOPLES REPUBLIC OF CHINA (PRC)

Current information (Y/N): Y

RCS size: SMALL

Orbital parameters

Period: 99.178 minutes

Inclination: 98.2352 deg

SMA: 7097.479 km

Apoapsis: 911.751 km

Periapsis: 526.937 km

RAAN: 344.4722 deg

Eccentricy: 0.0271092

Argument of periapsis: 86.1564 deg

Mean anomaly: 277.0577 deg

Mean motion: 14.51933164 rev/day

Mean motion (dot): 0.00005951 rev/day2

B* drag term: 0.00091793 1/REarth

Two-line elements (TLE)

Creation date: Oct. 26, 2025, 7:07 a.m.

Reference frame: TEME

Reference center: EARTH

Epoch: Oct. 25, 2025, 8:38 p.m. UTC

TLE line 0: 0 FENGYUN 1C DEB

TLE line 1: 1 32350U 99025CYT 25298.86005801 .00005951 00000-0 91793-3 0 9994

TLE line 2: 2 32350 98.2352 344.4722 0271092 86.1564 277.0577 14.51933164968321

Live tracking on map

Real-time ground track for satellite FENGYUN 1C DEB.

In-orbit conjunctions

A list of the most updated potential collisions computed for object FENGYUN 1C DEB.

Target Orbit TCA Probability of collision Miss distance Type
SL-8 DEB LEO 2025-06-04 15:51:24 0.0002233497 95.0 (m) DEBRIS
IRIDIUM 33 DEB LEO 2024-11-10 18:08:58 0.000506014 236.0 (m) DEBRIS

Associated space launch

Chinese polar orbiting meteorological satellite

FENGYUN 1C DEB was lifted into orbit during the mission ‘Long March 4B | Feng Yun 1C’, on board a Long March 4B space rocket.

The launch took place on May 10, 1999, 1:33 a.m. from Launch Complex 7.

For more information about the launch, click the button.

Launch to space Long March 4B | Feng Yun 1C
Long March 4B | Feng Yun 1C

Agency: N/A

Status: Launch Successful

Launch date: May 10, 1999, 1:33 a.m. UTC

Rocket: Long March 4B

Launch pad: Launch Complex 7

Location: Taiyuan Satellite Launch Center, People's Republic of China

...

Latest news about this satellite

There are no fresh news available about this satellite. Check back as we update our databases every day.


Newsletter sign-up

Weekly statistics, charts and insights to help you stay on top of the space industry.